User: anonymous   Login
Location: Unspecified
(0.0000°N, 0.0000°E)
Time: 20:25:21
(UTC+01:00)
Language:

Helios 1A Rocket - Orbit

View from above orbital plane
View from above orbital plane
View from above satellite
View from above satellite

Ground track
Ground track

The orbit data is extracted from the following two-line orbital elements,

1 23608U 95033D   17323.21311755  .00000041  00000-0  93375-5 0  9997
2 23608  98.2352 263.3209 0017945 100.8564 259.4677 14.96488989210947
Epoch (UTC): 19 November 2017 05:06:53
Eccentricity: 0.0017945
inclination: 98.2352°
perigee height: 565 km
apogee height: 590 km
right ascension of ascending node: 263.3209°
argument of perigee: 100.8564°
revolutions per day: 14.96488989
mean anomaly at epoch: 259.4677°
orbit number at epoch: 21094

The dashed part of the orbit path shows where the satellite is in the earth's shadow,  

DLR